TimeMST,TemperatureF,Dew PointF,Humidity,Sea Level PressureIn,VisibilityMPH,Wind Direction,Wind SpeedMPH,Gust SpeedMPH,PrecipitationIn,Events,Conditions,WindDirDegrees,DateUTC
12:56 AM,5.0,1.9,87,30.16,10.0,West,6.9,-,N/A,,Clear,260,2013-01-01 07:56:00
1:56 AM,6.1,3.0,87,30.17,10.0,WSW,8.1,-,N/A,,Clear,250,2013-01-01 08:56:00
2:56 AM,5.0,1.0,84,30.17,10.0,Calm,Calm,-,N/A,,Clear,0,2013-01-01 09:56:00
3:56 AM,1.9,-0.9,88,30.17,10.0,West,8.1,-,N/A,,Clear,260,2013-01-01 10:56:00
4:56 AM,1.9,-0.9,88,30.16,10.0,West,4.6,-,N/A,,Clear,260,2013-01-01 11:56:00
5:56 AM,1.9,-0.9,88,30.15,10.0,SW,3.5,-,N/A,,Clear,230,2013-01-01 12:56:00
7:56 AM,3.9,1.0,88,30.13,10.0,West,5.8,-,N/A,,Clear,260,2013-01-01 14:56:00
8:56 AM,8.1,3.9,83,30.12,10.0,WSW,9.2,-,N/A,,Clear,250,2013-01-01 15:56:00
9:56 AM,12.9,9.0,84,30.10,10.0,West,12.7,-,N/A,,Clear,260,2013-01-01 16:56:00
10:56 AM,16.0,10.9,81,30.09,10.0,West,15.0,-,N/A,,Clear,260,2013-01-01 17:56:00
11:56 AM,18.0,12.0,78,30.05,10.0,West,16.1,-,N/A,,Clear,270,2013-01-01 18:56:00
12:56 PM,19.9,12.9,74,30.05,10.0,West,12.7,-,N/A,,Clear,280,2013-01-01 19:56:00
1:56 PM,23.0,16.0,74,30.01,10.0,West,12.7,-,N/A,,Scattered Clouds,270,2013-01-01 20:56:00
2:56 PM,26.1,19.0,75,30.02,10.0,WNW,15.0,-,N/A,,Overcast,290,2013-01-01 21:56:00
3:35 PM,24.8,19.4,80,29.89,1.8,WNW,18.4,-,0.00,Snow,Light Snow,290,2013-01-01 22:35:00
3:43 PM,24.8,21.2,86,29.90,0.8,WNW,19.6,-,0.00,Snow,Light Snow,290,2013-01-01 22:43:00
3:56 PM,24.1,21.0,88,30.05,0.5,WNW,18.4,-,0.00,Fog-Snow,Snow,290,2013-01-01 22:56:00
4:06 PM,24.8,21.2,86,29.90,0.5,WNW,18.4,-,0.00,Fog-Snow,Snow,290,2013-01-01 23:06:00
4:33 PM,24.8,21.2,86,29.91,1.0,WNW,18.4,-,0.00,Snow,Light Snow,290,2013-01-01 23:33:00
4:56 PM,25.0,21.9,88,30.06,1.0,WNW,15.0,-,0.01,Snow,Light Snow,290,2013-01-01 23:56:00
5:36 PM,24.8,21.2,86,29.91,2.5,West,18.4,-,0.00,Snow,Light Snow,280,2013-01-02 00:36:00
5:45 PM,24.8,21.2,86,29.91,4.0,West,17.3,-,0.00,Snow,Light Snow,280,2013-01-02 00:45:00
5:56 PM,25.0,21.9,88,30.05,8.0,West,18.4,-,0.00,Snow,Light Snow,280,2013-01-02 00:56:00
6:20 PM,26.6,23.0,86,29.91,10.0,WNW,20.7,-,0.00,,Overcast,290,2013-01-02 01:20:00
6:56 PM,27.0,24.1,89,30.05,10.0,WNW,21.9,-,0.00,,Overcast,290,2013-01-02 01:56:00
7:53 PM,26.6,23.0,86,29.92,10.0,WNW,20.7,-,N/A,,Mostly Cloudy,300,2013-01-02 02:53:00
7:56 PM,26.1,23.0,88,30.06,10.0,WNW,18.4,-,N/A,,Mostly Cloudy,300,2013-01-02 02:56:00
8:04 PM,26.6,23.0,86,29.92,10.0,WNW,18.4,-,N/A,,Mostly Cloudy,300,2013-01-02 03:04:00
8:19 PM,26.6,23.0,86,29.92,10.0,WNW,19.6,-,N/A,,Overcast,300,2013-01-02 03:19:00
8:56 PM,25.0,21.0,85,30.05,10.0,WNW,16.1,-,N/A,,Scattered Clouds,290,2013-01-02 03:56:00
9:56 PM,23.0,19.9,88,30.04,10.0,WNW,19.6,-,N/A,,Clear,290,2013-01-02 04:56:00
10:24 PM,24.8,21.2,86,29.91,10.0,WNW,23.0,-,N/A,,Mostly Cloudy,290,2013-01-02 05:24:00
10:56 PM,26.1,21.9,84,30.03,9.0,WNW,21.9,32.2,N/A,,Overcast,300,2013-01-02 05:56:00
11:42 PM,26.6,21.2,80,29.92,9.0,WNW,21.9,-,0.00,,Overcast,300,2013-01-02 06:42:00
11:53 PM,26.6,21.2,80,29.92,9.0,WNW,21.9,-,0.00,Snow,Light Snow,290,2013-01-02 06:53:00
11:56 PM,26.1,23.0,88,30.04,9.0,WNW,23.0,-,0.00,,Overcast,290,2013-01-02 06:56:00